[[{"header":{"parameterUnit":"m.s-1","parameterCategory":1,"la1":30.2991,"la2":30.254,"lo1":-89.0895,"lo2":-89.0444,"dy":0.0017,"dx":0.0017,"nx":28,"ny":28,"refTime":"2023-10-17T09:00:00:Z","depth":0,"parameterNumber":2,"parameterNumberName":"U-component_of_WINDS"},"data":[0,0,0,0,0,0,0,0,0,0,0,0,0,0,0,0,0,0,0,0,0,0,0,0,0,0,0,0,0,0,0,0,0,0,0,0,0,0,0,0,0,0,0,0,0,0,0,0,0,0,0,0,0,0,0,0,0,0,-2.8493,-2.8494,0,-2.8587,-2.8588,-2.8589,-2.8564,-2.8562,-2.856,-2.8558,-2.8649,-2.8653,-2.8657,0,0,0,0,0,0,0,0,0,0,0,0,0,-2.8286,-2.829,-2.8493,-2.8494,-2.8495,-2.8587,-2.8588,-2.8589,-2.8564,-2.8562,-2.856,-2.8557,-2.8648,-2.8653,-2.8658,0,0,0,0,0,0,0,0,0,0,0,0,0,-2.8377,-2.8291,-2.8492,-2.8494,-2.8495,-2.8587,-2.8588,-2.859,-2.8565,-2.8562,-2.8559,-2.8556,-2.8646,-2.8652,-2.8658,-2.8753,0,0,-2.8677,-2.868,0,0,0,0,0,0,0,0,-2.8372,-2.8385,-2.8492,-2.8494,-2.8495,-2.8561,-2.8548,-2.8644,-2.8565,-2.8538,-2.8558,-2.8555,-2.8622,-2.863,-2.8653,-2.8757,-2.8761,-2.8678,-2.8682,-2.8685,-2.8686,0,0,0,0,0,0,0,-2.8366,-2.8381,-2.853,-2.8494,-2.8496,-2.8488,-2.8498,-2.8567,-2.8594,-2.854,-2.8538,-2.855,-2.8622,-2.8647,-2.8655,-2.8763,-2.8678,-2.8683,-2.8687,-2.869,-2.8948,-2.8951,0,0,0,0,0,0,-2.8359,-2.8376,-2.8527,-2.8533,-2.8426,-2.8494,-2.8505,-2.8542,-2.8593,-2.8599,-2.8553,-2.8549,-2.8638,-2.8648,-2.8658,-2.8771,-2.8684,-2.869,-2.8694,-2.8945,-2.8949,-2.8952,0,0,0,0,0,0,-2.8355,-2.8373,-2.8523,-2.8454,-2.8472,-2.85,-2.8543,-2.8546,-2.8571,-2.8603,-2.8607,-2.8574,-2.8636,-2.865,-2.873,-2.8774,-2.8693,-2.8699,-2.8941,-2.8946,-2.895,-2.8999,0,0,0,0,0,0,-2.8349,-2.8372,-2.8409,-2.8455,-2.8476,-2.8594,-2.8546,-2.855,-2.8583,-2.8579,-2.8624,-2.8629,-2.8635,-2.8721,-2.8736,-2.8781,-2.8704,-2.8937,-2.8943,-2.8949,-2.8993,-2.9005,-2.9014,0,0,0,0,0,-2.8342,-2.8418,-2.8411,-2.8429,-2.8524,-2.8597,-2.8609,-2.8616,-2.8587,-2.8623,-2.8644,-2.8627,-2.8768,-2.8729,-2.8746,-2.8794,-2.8934,-2.8942,-2.8948,-2.8989,-2.9002,-2.9014,0,0,0,0,0,0,-2.8374,-2.8424,-2.8417,-2.851,-2.855,-2.8593,-2.8639,-2.8631,-2.8678,-2.8672,-2.8678,-2.8688,-2.877,-2.879,-2.8747,-2.8888,-2.8846,-2.8857,-2.8871,-2.8884,-2.8895,-2.8887,-2.8709,0,0,0,0,0,-2.8392,-2.845,-2.8489,-2.8568,-2.8588,-2.8611,-2.8643,-2.8646,-2.8686,-2.8702,-2.8728,-2.8766,-2.8819,-2.8853,-2.8904,-2.8997,-2.9005,-2.9039,-2.9049,-2.9057,-2.9066,-2.9115,-2.913,-2.8975,-2.8975,-2.8975,0,0,-2.843,-2.8464,-2.8499,-2.8575,-2.8606,-2.8663,-2.8625,-2.8687,-2.8729,-2.8711,-2.8788,-2.8809,-2.8852,-2.8939,-2.8979,-2.8959,-2.9111,-2.9066,-2.9073,-2.9076,-2.9124,-2.9139,-2.9152,-2.898,-2.8979,-2.8978,0,0,-2.8527,-2.856,-2.8628,-2.8661,-2.8709,-2.8724,-2.8741,-2.8785,-2.8799,-2.8878,-2.8865,-2.8914,-2.9005,-2.9036,-2.9064,-2.9175,-2.9161,-2.9191,-2.9244,-2.9293,-2.9305,-2.9316,-2.9353,-2.9367,-2.92,-2.92,-2.92,0,-2.8567,-2.8654,-2.8664,-2.8728,-2.8761,-2.875,-2.8818,-2.8849,-2.891,-2.8932,-2.891,-2.9024,-2.9052,-2.9146,-2.9173,-2.9197,-2.9214,-2.9184,-2.9303,-2.9314,-2.9324,-2.9359,-2.9374,-2.9203,-2.9203,-2.9202,-2.9202,0,-2.87,-2.8761,-2.881,-2.8872,-2.8911,-2.8977,-2.8995,-2.9033,-2.9033,-2.9049,-2.9128,-2.9163,-2.9219,-2.9242,-2.9242,-2.9336,-2.9322,-2.9301,-2.9259,-2.9342,-2.9375,-2.9389,-2.9208,-2.9207,-2.9206,-2.9205,0,0,-2.8817,-2.8885,-2.8903,-2.8931,-2.8984,-2.903,-2.9095,-2.9153,-2.9184,-2.9228,-2.9281,-2.9359,-2.934,-2.9372,-2.9375,-2.9418,-2.9502,-2.9392,-2.9393,-2.9409,-2.9605,-2.9618,-2.9634,-2.9494,-2.9497,-2.9499,-2.96,0,-2.8917,-2.9033,-2.9045,-2.9148,-2.9203,-2.9195,-2.9251,-2.9289,-2.9307,-2.9355,-2.9374,-2.9428,-2.9401,-2.942,-2.9462,-2.9482,-2.954,-2.9476,-2.9541,-2.9543,-2.9527,-2.9652,-2.9666,-2.976,-2.9614,-2.9616,-2.9618,0,-2.9049,-2.9098,-2.9207,-2.9253,-2.9276,-2.9327,-2.938,-2.9428,-2.947,-2.948,-2.9517,-2.9514,-2.9579,-2.9538,-2.9626,-2.9582,-2.961,-2.9624,-2.9628,-2.9631,-2.9583,-2.9656,-2.979,-2.9803,-2.9639,-2.9637,-2.9636,0,-2.912,-2.9214,-2.9291,-2.9315,-2.9371,-2.9407,-2.9432,-2.9472,-2.9506,-2.9552,-2.9574,-2.9627,-2.9655,-2.9695,-2.9707,-2.9676,-2.9795,-2.9754,-2.9802,-2.9802,-2.9825,-2.9823,-2.9963,-2.9848,-2.9848,-2.9848,-2.9847,0,-2.9229,-2.9295,-2.9324,-2.9371,-2.9445,-2.9458,-2.953,-2.9552,-2.9589,-2.9639,-2.9635,-2.9681,-2.9695,-2.9744,-2.9754,-2.9825,-2.9838,-2.9846,-2.9847,-2.9845,-2.9844,-2.9861,-2.9853,-2.9851,-2.985,-2.985,-2.9849,0,-2.932,-2.9342,-2.9425,-2.9473,-2.9486,-2.9538,-2.9578,-2.9622,-2.964,-2.9704,-2.9719,-2.9747,-2.9804,-2.9821,-2.9889,-2.9896,-2.9978,-2.9975,-2.9964,-2.9963,-3.001,-3.0004,-3.0163,-3.0183,-3.0058,-3.0059,-3.006,0,-2.9386,-2.9437,-2.9491,-2.9525,-2.9552,-2.9607,-2.9642,-2.9657,-2.9693,-2.9746,-2.9784,-2.9842,-2.9888,-2.9979,-3.0004,-3.0056,-3.0052,-3.0105,-3.006,-3.0056,-3.005,-3.0046,-3.005,-3.0112,-3.0113,-3.0114,-3.0115,0,-2.9501,-2.951,-2.9561,-2.9618,-2.966,-2.9705,-2.9747,-2.9775,-2.9795,-2.9836,-2.9896,-2.9932,-3.0003,-3.0059,-3.0112,-3.0136,-3.0128,-3.013,-3.0143,-3.0139,-3.013,-3.0133,-2.9984,-3.0125,-3.0124,-3.0123,-3.0123,-3.0122,-2.958,-2.9624,-2.9669,-2.9727,-2.9761,-2.9802,-2.9846,-2.987,-2.9921,-2.9981,-2.9987,-3.0051,-3.0092,-3.0163,-3.0189,-3.0238,-3.0223,-3.0243,-3.0247,-3.0251,-3.0254,-3.0125,-3.0248,-3.0248,-3.0248,-3.0248,-3.0248,0,-2.9692,-2.9721,-2.9774,-2.9835,-2.988,-2.9873,-2.992,-2.9957,-3.0014,-3.0054,-3.0101,-3.0169,-3.0224,-3.0254,-3.0308,-3.0341,-3.0339,-3.0355,-3.0351,-3.0356,-3.0266,-3.0248,-3.0356,-3.0356,-3.0356,-3.0356,-3.0355,-3.0355,-2.9755,-2.983,-2.9845,-2.9937,-2.9965,-3.0029,-3.0056,-3.0093,-3.0125,-3.0202,-3.0248,-3.0269,-3.0304,-3.0361,-3.0411,-3.0418,-3.0437,-3.0454,-3.0459,-3.0374,-3.0362,-3.0352,-3.0334,-3.0459,-3.0459,-3.0544,-3.0545,-3.0545]},{"header":{"parameterUnit":"m.s-1","parameterCategory":1,"la1":30.2991,"la2":30.254,"lo1":-89.0895,"lo2":-89.0444,"dy":0.0017,"dx":0.0017,"nx":28,"ny":28,"refTime":"2023-10-17T09:00:00:Z","depth":0,"parameterNumber":3,"parameterNumberName":"V-component_of_WINDS"},"data":[0,0,0,0,0,0,0,0,0,0,0,0,0,0,0,0,0,0,0,0,0,0,0,0,0,0,0,0,0,0,0,0,0,0,0,0,0,0,0,0,0,0,0,0,0,0,0,0,0,0,0,0,0,0,0,0,0,0,-0.7139,-0.7139,0,-0.7151,-0.7152,-0.7152,-0.7174,-0.7174,-0.7175,-0.7175,-0.7188,-0.7188,-0.7188,0,0,0,0,0,0,0,0,0,0,0,0,0,-0.7134,-0.7134,-0.7139,-0.7139,-0.7139,-0.7151,-0.7152,-0.7152,-0.7174,-0.7174,-0.7175,-0.7175,-0.7188,-0.7188,-0.7188,0,0,0,0,0,0,0,0,0,0,0,0,0,-0.714,-0.7134,-0.7139,-0.7152,-0.7153,-0.7151,-0.7152,-0.7152,-0.7174,-0.7174,-0.7175,-0.7175,-0.7188,-0.7188,-0.7188,-0.7175,0,0,-0.7188,-0.7188,0,0,0,0,0,0,0,0,-0.714,-0.7141,-0.715,-0.7151,-0.7152,-0.7162,-0.7155,-0.716,-0.7173,-0.7166,-0.7175,-0.7176,-0.7179,-0.718,-0.7181,-0.7176,-0.7177,-0.7188,-0.7188,-0.7188,-0.7188,0,0,0,0,0,0,0,-0.714,-0.714,-0.7144,-0.715,-0.7151,-0.7157,-0.7158,-0.7156,-0.7169,-0.7166,-0.7168,-0.7169,-0.718,-0.7181,-0.7181,-0.7177,-0.7188,-0.7188,-0.7188,-0.7188,-0.7161,-0.7161,0,0,0,0,0,0,-0.7137,-0.714,-0.7143,-0.7144,-0.7147,-0.7156,-0.7158,-0.7158,-0.7169,-0.7171,-0.7169,-0.717,-0.7181,-0.7181,-0.7182,-0.7167,-0.7188,-0.7188,-0.7188,-0.7162,-0.7161,-0.716,0,0,0,0,0,0,-0.7137,-0.7137,-0.7143,-0.7142,-0.7143,-0.7156,-0.7155,-0.7158,-0.7159,-0.717,-0.7173,-0.7167,-0.7181,-0.7182,-0.7177,-0.7168,-0.7188,-0.7188,-0.7163,-0.7162,-0.7161,-0.7137,0,0,0,0,0,0,-0.7137,-0.7137,-0.7132,-0.7142,-0.7143,-0.7137,-0.7155,-0.7158,-0.7159,-0.7161,-0.717,-0.7172,-0.7182,-0.7177,-0.7177,-0.7168,-0.7188,-0.7164,-0.7162,-0.7161,-0.7139,-0.7135,-0.7132,0,0,0,0,0,-0.7137,-0.7125,-0.7132,-0.7132,-0.7138,-0.7137,-0.7138,-0.7149,-0.7158,-0.7153,-0.716,-0.7172,-0.7169,-0.7176,-0.7176,-0.7167,-0.7164,-0.7163,-0.7161,-0.714,-0.7136,-0.7133,0,0,0,0,0,0,-0.7115,-0.7127,-0.7134,-0.7126,-0.713,-0.7141,-0.7135,-0.7144,-0.7146,-0.7148,-0.7162,-0.7164,-0.7157,-0.7162,-0.7169,-0.7155,-0.7168,-0.7167,-0.7152,-0.7148,-0.7145,-0.7144,-0.7188,0,0,0,0,0,-0.7109,-0.7107,-0.7118,-0.711,-0.7111,-0.7123,-0.7123,-0.7131,-0.7136,-0.7138,-0.7145,-0.7149,-0.7149,-0.7149,-0.715,-0.714,-0.7142,-0.7133,-0.713,-0.7128,-0.7126,-0.712,-0.7117,-0.7155,-0.7155,-0.7155,0,0,-0.7097,-0.7103,-0.7102,-0.7105,-0.711,-0.7107,-0.7124,-0.7121,-0.712,-0.7138,-0.7133,-0.7138,-0.7144,-0.7136,-0.7133,-0.7139,-0.7116,-0.7126,-0.7124,-0.7123,-0.7118,-0.7115,-0.7111,-0.7154,-0.7155,-0.7155,0,0,-0.7074,-0.7079,-0.7072,-0.7076,-0.7082,-0.7089,-0.7088,-0.7096,-0.71,-0.7096,-0.7109,-0.7107,-0.7107,-0.7111,-0.7112,-0.709,-0.71,-0.709,-0.7073,-0.7067,-0.7064,-0.7062,-0.7053,-0.705,-0.7088,-0.7088,-0.7088,0,-0.7058,-0.7055,-0.7068,-0.7063,-0.7065,-0.708,-0.7073,-0.7077,-0.7082,-0.7083,-0.709,-0.709,-0.7095,-0.7088,-0.7082,-0.7083,-0.7081,-0.7089,-0.7064,-0.7061,-0.7059,-0.7051,-0.7048,-0.7087,-0.7087,-0.7087,-0.7087,0,-0.7036,-0.7033,-0.7027,-0.7032,-0.7032,-0.7027,-0.7038,-0.7037,-0.7045,-0.7052,-0.7047,-0.7053,-0.7055,-0.7054,-0.7062,-0.7047,-0.7051,-0.7061,-0.7075,-0.7054,-0.7046,-0.7043,-0.7085,-0.7085,-0.7086,-0.7086,0,0,-0.6999,-0.7011,-0.7008,-0.701,-0.7017,-0.7016,-0.7011,-0.7013,-0.7011,-0.7015,-0.7011,-0.701,-0.7019,-0.702,-0.7029,-0.7024,-0.7005,-0.7034,-0.7035,-0.7028,-0.6988,-0.6981,-0.6977,-0.7012,-0.7011,-0.7011,-0.6988,0,-0.6978,-0.697,-0.698,-0.697,-0.6968,-0.6982,-0.6978,-0.6982,-0.6988,-0.6987,-0.6993,-0.6992,-0.7004,-0.7005,-0.7001,-0.7008,-0.6997,-0.701,-0.7008,-0.7007,-0.7005,-0.6973,-0.6965,-0.6943,-0.6985,-0.6984,-0.6984,0,-0.6951,-0.6953,-0.6942,-0.6949,-0.6949,-0.6945,-0.6947,-0.6946,-0.695,-0.6955,-0.6957,-0.6967,-0.6962,-0.6975,-0.6969,-0.6977,-0.6977,-0.698,-0.698,-0.698,-0.6994,-0.6972,-0.6936,-0.6933,-0.698,-0.698,-0.698,0,-0.6925,-0.6925,-0.6918,-0.6919,-0.6928,-0.6925,-0.6928,-0.6933,-0.6933,-0.6935,-0.6935,-0.6937,-0.6937,-0.6938,-0.6948,-0.6956,-0.694,-0.6954,-0.6943,-0.6943,-0.6939,-0.6939,-0.6903,-0.6939,-0.694,-0.694,-0.694,0,-0.6899,-0.6892,-0.6906,-0.6902,-0.6894,-0.6906,-0.6898,-0.6903,-0.6908,-0.6905,-0.6918,-0.6914,-0.6928,-0.6926,-0.6934,-0.6927,-0.6927,-0.6931,-0.6933,-0.693,-0.6929,-0.6929,-0.6931,-0.6939,-0.6939,-0.6939,-0.6939,0,-0.6869,-0.6878,-0.6872,-0.688,-0.6882,-0.6876,-0.6883,-0.688,-0.6886,-0.6882,-0.6882,-0.6892,-0.6891,-0.6901,-0.6901,-0.6906,-0.6896,-0.6901,-0.6894,-0.6895,-0.6884,-0.6885,-0.6846,-0.6842,-0.6881,-0.6881,-0.6881,0,-0.6851,-0.6846,-0.6854,-0.6853,-0.6855,-0.6853,-0.6853,-0.6865,-0.6864,-0.6869,-0.6864,-0.6864,-0.6864,-0.6861,-0.6869,-0.6869,-0.6874,-0.686,-0.6874,-0.687,-0.6873,-0.6873,-0.6872,-0.6857,-0.6857,-0.6856,-0.6856,0,-0.682,-0.6824,-0.6824,-0.6825,-0.6824,-0.6825,-0.6827,-0.6826,-0.6838,-0.6837,-0.6835,-0.6835,-0.6835,-0.6835,-0.6836,-0.684,-0.685,-0.6852,-0.6849,-0.6845,-0.6841,-0.6843,-0.6886,-0.6852,-0.6853,-0.6853,-0.6853,-0.6853,-0.6795,-0.6791,-0.6795,-0.6794,-0.6797,-0.6798,-0.6795,-0.6801,-0.68,-0.6801,-0.6808,-0.6805,-0.6809,-0.6812,-0.6815,-0.6812,-0.6819,-0.6815,-0.6814,-0.6813,-0.6811,-0.6842,-0.6813,-0.6813,-0.6813,-0.6813,-0.6813,0,-0.6763,-0.6767,-0.6766,-0.6768,-0.6767,-0.6776,-0.6779,-0.6777,-0.6774,-0.6777,-0.6777,-0.6775,-0.6774,-0.6781,-0.6782,-0.6778,-0.6783,-0.6778,-0.6778,-0.6779,-0.6805,-0.6807,-0.6774,-0.6774,-0.6774,-0.6774,-0.6774,-0.6774,-0.6747,-0.674,-0.6745,-0.6739,-0.6743,-0.674,-0.6741,-0.6742,-0.6745,-0.6742,-0.6741,-0.6745,-0.675,-0.675,-0.675,-0.6752,-0.6751,-0.6745,-0.6748,-0.6773,-0.6777,-0.678,-0.6782,-0.6744,-0.6744,-0.6722,-0.6721,-0.6721]}]]